Starlink 5115

decayed
NORAD ID: 53989 Int'l Des: 2022-125 Owner: SPXS Country: US Constellation: starlink
LEOCIRCULAR

关于 Starlink 5115

正在加载描述...

高度历史

Altitude vs Time

uPlot chart will show altitude changes over time

两行轨道根数

1 53989U 22125AB 24363.91151285 .08414335 12390-4 42754-3 0 9998
2 53989 53.1915 348.0635 0002387 161.3923 280.3064 16.42850950124059
Epoch: Dec 28, 2024 • Age: 10568 hours

当前状态

Position data unavailable
发射日期 Oct 5, 2022
运行时间 3.4 years
衰减日期 Dec 29, 2024
类型 internet

技术详情

分类 Payload
质量 305.00 kg
干质量 290.00 kg
总质量 305.00 kg
长度 0.20 m
直径 2.80 m
跨度 9.00 m
形状 Box + pan
制造商 SPXS
平台类型 Starlink
阶段状态 Reentered
所有者/国家 SPXS/US

大型星座

Loading constellations...